[[{"header":{"parameterUnit":"m.s-1","parameterCategory":1,"la1":30.2991,"la2":30.254,"lo1":-89.0895,"lo2":-89.0444,"dy":0.0017,"dx":0.0017,"nx":28,"ny":28,"refTime":"2023-11-07T03:00:00:Z","depth":0,"parameterNumber":2,"parameterNumberName":"U-component_of_WINDS"},"data":[0,0,0,0,0,0,0,0,0,0,0,0,0,0,0,0,0,0,0,0,0,0,0,0,0,0,0,0,0,0,0,0,0,0,0,0,0,0,0,0,0,0,0,0,0,0,0,0,0,0,0,0,0,0,0,0,0,0,0.7988,0.7989,0,0.8055,0.8055,0.8056,0.8027,0.8026,0.8024,0.8022,0.809,0.8094,0.8097,0,0,0,0,0,0,0,0,0,0,0,0,0,0.7835,0.7838,0.7988,0.7989,0.799,0.8054,0.8055,0.8056,0.8028,0.8026,0.8024,0.8022,0.8089,0.8093,0.8097,0,0,0,0,0,0,0,0,0,0,0,0,0,0.7901,0.7839,0.7988,0.7983,0.7983,0.8054,0.8055,0.8056,0.8028,0.8025,0.8023,0.8021,0.8088,0.8093,0.8098,0.8177,0,0,0.8113,0.8115,0,0,0,0,0,0,0,0,0.7898,0.7907,0.7983,0.7984,0.7984,0.803,0.8026,0.8097,0.8029,0.8011,0.8022,0.802,0.8072,0.8078,0.8096,0.818,0.8183,0.8113,0.8116,0.8119,0.812,0,0,0,0,0,0,0,0.7893,0.7904,0.8014,0.7984,0.7985,0.7977,0.7984,0.8039,0.8054,0.8012,0.801,0.8019,0.8072,0.8092,0.8098,0.8184,0.8113,0.8118,0.8121,0.8123,0.8336,0.8338,0,0,0,0,0,0,0.7888,0.79,0.8012,0.8016,0.7934,0.7982,0.799,0.8018,0.8054,0.8057,0.8021,0.8017,0.8084,0.8092,0.81,0.8195,0.8119,0.8123,0.8126,0.8333,0.8336,0.8339,0,0,0,0,0,0,0.7885,0.7899,0.8009,0.7958,0.7971,0.7987,0.8019,0.802,0.804,0.806,0.8063,0.8038,0.8083,0.8093,0.8158,0.8196,0.8126,0.813,0.833,0.8334,0.8338,0.8385,0,0,0,0,0,0,0.7881,0.7898,0.7928,0.7959,0.7974,0.8067,0.8021,0.8023,0.8048,0.8044,0.8077,0.808,0.8081,0.8151,0.8163,0.8202,0.8134,0.8326,0.8332,0.8336,0.838,0.839,0.8399,0,0,0,0,0,0.7876,0.7939,0.793,0.7944,0.8013,0.8069,0.8078,0.8079,0.8052,0.8082,0.8095,0.8079,0.819,0.8158,0.8171,0.8212,0.8324,0.833,0.8336,0.8376,0.8388,0.8398,0,0,0,0,0,0,0.7913,0.7943,0.7933,0.8009,0.8037,0.8064,0.8103,0.8092,0.8128,0.8122,0.8121,0.8129,0.8196,0.8211,0.8174,0.829,0.8253,0.8262,0.8279,0.829,0.8299,0.8294,0.8138,0,0,0,0,0,0.793,0.7974,0.7997,0.8061,0.8076,0.8087,0.8112,0.811,0.8138,0.815,0.8168,0.8196,0.8237,0.8265,0.8304,0.8382,0.8388,0.8417,0.8426,0.8434,0.8441,0.8483,0.8495,0.8359,0.8359,0.8359,0,0,0.7966,0.7987,0.8015,0.8069,0.8091,0.8135,0.8097,0.8146,0.8179,0.8157,0.822,0.8234,0.8265,0.8337,0.8369,0.8351,0.848,0.8441,0.8447,0.8451,0.849,0.8503,0.8515,0.8363,0.8362,0.8362,0,0,0.8053,0.8074,0.813,0.8152,0.8184,0.8191,0.8205,0.8234,0.8242,0.8305,0.8289,0.8328,0.84,0.8422,0.8444,0.8539,0.8525,0.8552,0.86,0.8641,0.8651,0.8661,0.8694,0.8706,0.8559,0.8559,0.8559,0,0.8093,0.816,0.8159,0.821,0.8234,0.8216,0.8271,0.8293,0.8337,0.8354,0.8333,0.8421,0.8441,0.8518,0.8541,0.8559,0.8573,0.8548,0.865,0.8659,0.8668,0.87,0.8713,0.8562,0.8562,0.8562,0.8561,0,0.8207,0.8254,0.8294,0.8337,0.8366,0.8419,0.8425,0.8454,0.845,0.8459,0.8522,0.8545,0.8589,0.8607,0.8603,0.8682,0.867,0.865,0.8612,0.8684,0.8714,0.8726,0.8567,0.8566,0.8565,0.8564,0,0,0.832,0.8362,0.8376,0.8395,0.843,0.8466,0.8517,0.8559,0.8584,0.8615,0.8658,0.8718,0.8699,0.8723,0.8721,0.8757,0.883,0.8732,0.8733,0.8749,0.8918,0.8933,0.8947,0.8821,0.8823,0.8825,0.8915,0,0.841,0.85,0.8501,0.8584,0.8627,0.861,0.8655,0.8681,0.869,0.8728,0.8738,0.8781,0.8753,0.8767,0.8801,0.8814,0.8864,0.8807,0.886,0.8862,0.8852,0.8963,0.8979,0.9063,0.8927,0.8929,0.893,0,0.8526,0.8561,0.8648,0.8676,0.8694,0.8734,0.8773,0.8809,0.8837,0.8842,0.8868,0.8861,0.8912,0.8873,0.8944,0.8906,0.8927,0.8937,0.894,0.8945,0.89,0.897,0.909,0.9102,0.8949,0.8947,0.8946,0,0.8599,0.8667,0.8728,0.8745,0.8779,0.8808,0.8823,0.885,0.8875,0.8908,0.8924,0.8963,0.8985,0.9015,0.9018,0.8989,0.9089,0.905,0.9094,0.9094,0.9116,0.9114,0.924,0.913,0.913,0.913,0.913,0,0.8699,0.8753,0.8761,0.8799,0.8859,0.8859,0.8918,0.8931,0.8954,0.8993,0.8982,0.9019,0.9021,0.9059,0.9062,0.9119,0.9129,0.9134,0.9134,0.9135,0.9134,0.9149,0.9143,0.9133,0.9132,0.9132,0.9131,0,0.879,0.8798,0.8863,0.889,0.8898,0.8941,0.8964,0.9,0.9008,0.9058,0.9069,0.9082,0.9126,0.9132,0.9184,0.9185,0.9255,0.9249,0.9245,0.9244,0.9287,0.9283,0.9427,0.9445,0.9324,0.9325,0.9326,0,0.8853,0.8894,0.8925,0.8951,0.8968,0.901,0.9035,0.9036,0.9063,0.9099,0.913,0.9173,0.9207,0.9277,0.9291,0.933,0.9325,0.9372,0.9331,0.933,0.9325,0.9322,0.9326,0.938,0.9382,0.9383,0.9384,0,0.8963,0.8965,0.9003,0.9042,0.9072,0.9103,0.9132,0.9153,0.9158,0.9189,0.9234,0.9261,0.9313,0.9355,0.9394,0.9409,0.9397,0.9397,0.9409,0.941,0.9406,0.9408,0.9267,0.9394,0.9393,0.9392,0.9391,0.9391,0.9042,0.9077,0.9105,0.9147,0.9169,0.9196,0.923,0.9243,0.928,0.9323,0.9322,0.9371,0.9398,0.9448,0.9466,0.9504,0.9488,0.9506,0.951,0.9515,0.9519,0.94,0.9511,0.9511,0.9511,0.951,0.951,0,0.9151,0.9168,0.9207,0.9247,0.928,0.9267,0.9298,0.9326,0.9369,0.9395,0.9429,0.948,0.9521,0.9538,0.9578,0.9605,0.96,0.9615,0.9613,0.9617,0.9531,0.9516,0.9618,0.9618,0.9618,0.9618,0.9618,0.9618,0.9211,0.9271,0.9276,0.9346,0.9362,0.941,0.9429,0.9454,0.9475,0.9532,0.9566,0.9577,0.9599,0.9641,0.9677,0.9681,0.9696,0.9713,0.9715,0.9634,0.9623,0.9612,0.9599,0.9717,0.9717,0.9797,0.9798,0.9799]},{"header":{"parameterUnit":"m.s-1","parameterCategory":1,"la1":30.2991,"la2":30.254,"lo1":-89.0895,"lo2":-89.0444,"dy":0.0017,"dx":0.0017,"nx":28,"ny":28,"refTime":"2023-11-07T03:00:00:Z","depth":0,"parameterNumber":3,"parameterNumberName":"V-component_of_WINDS"},"data":[0,0,0,0,0,0,0,0,0,0,0,0,0,0,0,0,0,0,0,0,0,0,0,0,0,0,0,0,0,0,0,0,0,0,0,0,0,0,0,0,0,0,0,0,0,0,0,0,0,0,0,0,0,0,0,0,0,0,3.195,3.195,0,3.1919,3.1918,3.1918,3.1843,3.1841,3.184,3.1838,3.1809,3.1809,3.181,0,0,0,0,0,0,0,0,0,0,0,0,0,3.1949,3.1949,3.195,3.195,3.1949,3.1919,3.1918,3.1918,3.1843,3.1841,3.1839,3.1838,3.1809,3.1809,3.181,0,0,0,0,0,0,0,0,0,0,0,0,0,3.1937,3.1949,3.195,3.1908,3.1904,3.1919,3.1918,3.1918,3.1844,3.1841,3.1839,3.1837,3.1808,3.1809,3.181,3.1864,0,0,3.1813,3.1814,0,0,0,0,0,0,0,0,3.1938,3.1937,3.1915,3.1911,3.1907,3.1882,3.1907,3.19,3.1844,3.1867,3.1838,3.1836,3.1835,3.1834,3.1833,3.1862,3.1861,3.1813,3.1814,3.1815,3.1815,0,0,0,0,0,0,0,3.1938,3.1938,3.1938,3.1915,3.191,3.1892,3.1888,3.1905,3.1865,3.1865,3.1859,3.1856,3.1833,3.1833,3.1832,3.1861,3.1813,3.1814,3.1815,3.1815,3.1932,3.1935,0,0,0,0,0,0,3.1945,3.1939,3.1939,3.1937,3.1917,3.1894,3.1889,3.1893,3.1864,3.1858,3.1858,3.1853,3.1832,3.1831,3.1831,3.1891,3.1815,3.1815,3.1816,3.193,3.1933,3.1936,0,0,0,0,0,0,3.1945,3.1946,3.194,3.1936,3.1934,3.1897,3.1901,3.1893,3.1893,3.1859,3.1852,3.1865,3.183,3.1829,3.1856,3.1889,3.1816,3.1817,3.1927,3.1931,3.1934,3.2014,0,0,0,0,0,0,3.1945,3.1946,3.1965,3.1937,3.1935,3.1965,3.1903,3.1894,3.1895,3.1887,3.1864,3.1858,3.1828,3.1855,3.1857,3.1889,3.1818,3.1924,3.1929,3.1933,3.2008,3.202,3.203,0,0,0,0,0,3.1946,3.1989,3.1967,3.1967,3.1958,3.1967,3.1966,3.193,3.1898,3.1917,3.1896,3.1859,3.1886,3.1858,3.186,3.1893,3.1921,3.1927,3.1933,3.2003,3.2017,3.2029,0,0,0,0,0,0,3.2023,3.1985,3.1959,3.1995,3.1985,3.1955,3.1978,3.1946,3.1945,3.1939,3.1894,3.189,3.1923,3.1911,3.1881,3.1944,3.1898,3.1904,3.195,3.1964,3.1974,3.1977,3.1818,0,0,0,0,0,3.2044,3.2054,3.2021,3.2056,3.2052,3.2016,3.2019,3.1992,3.198,3.1975,3.1956,3.1946,3.1952,3.1957,3.1961,3.2006,3.2,3.203,3.2041,3.205,3.2056,3.2079,3.2092,3.1954,3.1954,3.1954,0,0,3.2088,3.2069,3.2078,3.2071,3.2059,3.2072,3.2013,3.2028,3.2037,3.1978,3.2001,3.1987,3.1974,3.201,3.2025,3.2001,3.2093,3.2057,3.2064,3.2065,3.2086,3.2099,3.2111,3.1958,3.1957,3.1957,0,0,3.2174,3.216,3.2188,3.2178,3.2162,3.2138,3.2145,3.2119,3.2107,3.213,3.2086,3.2096,3.2108,3.21,3.2098,3.2182,3.2148,3.2185,3.2242,3.2265,3.2276,3.2285,3.2315,3.2327,3.2191,3.2191,3.2191,0,3.2231,3.2247,3.2207,3.2224,3.2223,3.2169,3.2198,3.219,3.2177,3.2177,3.215,3.2164,3.2151,3.2185,3.2205,3.2205,3.2212,3.2187,3.2277,3.2286,3.2294,3.2323,3.2334,3.2195,3.2195,3.2194,3.2194,0,3.2318,3.2329,3.2354,3.2341,3.2342,3.2366,3.233,3.2336,3.2309,3.2289,3.2313,3.2296,3.2296,3.2302,3.2276,3.2332,3.2318,3.2285,3.2237,3.2313,3.2339,3.2349,3.2202,3.22,3.2199,3.2198,0,0,3.2452,3.2416,3.2426,3.242,3.2398,3.2407,3.2428,3.2426,3.2433,3.2426,3.2443,3.2454,3.2424,3.2421,3.2394,3.2415,3.2483,3.2379,3.2378,3.2399,3.2544,3.2569,3.2582,3.2461,3.2462,3.2464,3.2545,0,3.2533,3.2565,3.253,3.2571,3.2581,3.2531,3.255,3.2539,3.2521,3.2528,3.2507,3.2516,3.2475,3.2473,3.2491,3.2471,3.2511,3.2464,3.2477,3.2478,3.2482,3.2596,3.2622,3.2699,3.2555,3.2557,3.2558,0,3.2631,3.2628,3.2669,3.2645,3.2648,3.2666,3.2662,3.2669,3.2656,3.2642,3.2639,3.2606,3.2626,3.2581,3.2608,3.2577,3.258,3.2571,3.2573,3.2573,3.2522,3.2599,3.2723,3.2735,3.2574,3.2572,3.2571,0,3.2725,3.2731,3.2756,3.2752,3.2725,3.2738,3.2728,3.2713,3.2714,3.2712,3.2712,3.2713,3.2713,3.2714,3.2683,3.2652,3.2715,3.2666,3.2703,3.2704,3.2719,3.2718,3.2846,3.2721,3.2721,3.2721,3.272,0,3.2819,3.2846,3.2798,3.2814,3.2843,3.2803,3.2834,3.2818,3.2805,3.2818,3.2775,3.2788,3.2746,3.2755,3.2731,3.2757,3.2758,3.2747,3.274,3.2751,3.2752,3.2752,3.2746,3.2724,3.2723,3.2722,3.2722,0,3.2928,3.2897,3.2921,3.2893,3.2887,3.291,3.2887,3.2901,3.2879,3.2896,3.2898,3.2865,3.2873,3.2842,3.2845,3.2829,3.2869,3.2853,3.2873,3.2868,3.2908,3.2904,3.3039,3.3055,3.2921,3.2922,3.2923,0,3.299,3.301,3.2984,3.2989,3.298,3.2989,3.299,3.2952,3.2955,3.2943,3.2959,3.2963,3.2965,3.2981,3.2958,3.296,3.2945,3.2992,3.2945,3.2955,3.2945,3.2945,3.2947,3.3002,3.3003,3.3005,3.3006,0,3.3104,3.3087,3.309,3.3088,3.3091,3.3088,3.3082,3.3089,3.3047,3.3053,3.3061,3.3062,3.3065,3.3071,3.3069,3.3059,3.3026,3.3021,3.3029,3.3041,3.3051,3.3046,3.29,3.3018,3.3017,3.3016,3.3015,3.3015,3.3191,3.3207,3.3191,3.3196,3.3187,3.3183,3.3195,3.3175,3.318,3.3179,3.3156,3.3168,3.3156,3.3149,3.3143,3.3153,3.3131,3.3144,3.3147,3.3151,3.3157,3.305,3.3152,3.3152,3.3151,3.3151,3.3151,0,3.3303,3.329,3.3295,3.3288,3.3292,3.326,3.3252,3.3258,3.3269,3.3259,3.3262,3.3271,3.3276,3.3254,3.3256,3.3268,3.3253,3.327,3.3269,3.3267,3.3177,3.3169,3.3282,3.3282,3.3282,3.3282,3.3282,3.3282,3.3361,3.3386,3.3367,3.3388,3.3375,3.3386,3.3384,3.338,3.3372,3.3384,3.3388,3.3373,3.3359,3.336,3.3363,3.3357,3.336,3.3382,3.337,3.3286,3.3274,3.3261,3.3254,3.3383,3.3383,3.346,3.3461,3.3461]}]]